Change the Weather History Date:

Monday, November 5, 2012

  Actual Average Record
Temperature  
Mean Temperature 38 °F -  
Max Temperature 41 °F 42 °F 53 °F (2011)
Min Temperature 35 °F 36 °F 32 °F (1998)
Degree Days  
Heating Degree Days 27    
Moisture  
Dew Point 37 °F    
Average Humidity 93    
Maximum Humidity 100    
Minimum Humidity 77    
Precipitation  
Precipitation 0.08 in - - ()
Sea Level Pressure  
Sea Level Pressure 29.60 in    
Wind  
Wind Speed 5 mph ()    
Max Wind Speed 12 mph    
Max Gust Speed 20 mph    
Visibility 6.1 miles    
Events Rain    
Averages and records for this station are not official NWS values.
T = Trace of Precipitation, MM = Missing Value Source: Averaged Metar Reports

Daily Weather History Graph

Daily Weather History Graph

Search for Another Location

Airport or City:

Trip Planner

Search our weather history database for the weather conditions in past years. The results will help you decide how hot, cold, wet, or windy it might be!

Date:

Astronomy

Nov. 05, 2012 Rise Set
Actual Time 7:33 AM CET 5:03 PM CET
Civil Twilight 6:58 AM CET 5:38 PM CET
Nautical Twilight 6:19 AM CET 6:17 PM CET
Astronomical Twilight 5:41 AM CET 6:55 PM CET
Moon 10:24 PM CET (11/5) 12:46 PM CET (11/5)
Length of Visible Light 10h 39m
Length of Day
9h 30m
Waning Gibbous, 65% of the Moon is Illuminated
Nov 5
Waning Gibbous
Nov 7
Last Quarter
Nov 13
New
Nov 20
First Quarter
Nov 28
Full

Hourly Weather History & Observations

Time (CET) Temp. Windchill Dew Point Humidity Pressure Visibility Wind Dir Wind Speed Gust Speed Precip Events Conditions
12:05 AM 39.2 °F 35.9 °F 37.4 °F 93% 29.47 in 6.2 mi SW 4.6 mph 18.4 mph N/A   Mostly Cloudy
12:25 AM 39.2 °F 33.0 °F 37.4 °F 93% 29.47 in 6.2 mi SW 9.2 mph - N/A   Mostly Cloudy
1:00 AM 40 °F - 37 °F 83% 29.53 in 25 mi 4.5 mph - -   Scattered Clouds
1:04 AM 39.2 °F 35.9 °F 37.4 °F 93% 29.47 in 6.2 mi SW 4.6 mph 18.4 mph N/A   Mostly Cloudy
1:25 AM 39.2 °F 37.0 °F 37.4 °F 93% 29.47 in 6.2 mi Variable 3.5 mph 18.4 mph N/A   Overcast
1:34 AM 39.2 °F 35.0 °F 37.4 °F 93% 29.47 in 6.2 mi SW 5.8 mph 17.3 mph N/A   Overcast
2:25 AM 39.2 °F 33.6 °F 37.4 °F 93% 29.47 in 6.2 mi SW 8.1 mph - N/A   Overcast
2:44 AM 39.2 °F 33.6 °F 37.4 °F 93% 29.47 in 6.2 mi SW 8.1 mph - N/A   Overcast
2:50 AM 39.2 °F 33.6 °F 37.4 °F 93% 29.47 in 6.2 mi SW 8.1 mph - N/A   Overcast
3:25 AM 39.2 °F 33.0 °F 37.4 °F 93% 29.47 in 6.2 mi SW 9.2 mph - N/A   Overcast
3:29 AM 39.2 °F 33.0 °F 37.4 °F 93% 29.47 in 6.2 mi SW 9.2 mph - N/A   Overcast
4:00 AM 39 °F - 38 °F 92% 29.51 in 17 mi SW 11.2 mph - -   Partly Cloudy
4:25 AM 39.2 °F 33.0 °F 37.4 °F 93% 29.47 in 6.2 mi SW 9.2 mph - N/A   Overcast
4:29 AM 39.2 °F 33.0 °F 37.4 °F 93% 29.47 in 6.2 mi SW 9.2 mph - N/A   Overcast
4:39 AM 39.2 °F 33.0 °F 37.4 °F 93% 29.47 in 6.2 mi SW 9.2 mph - N/A   Mostly Cloudy
4:45 AM 39.2 °F 32.5 °F 37.4 °F 93% 29.47 in 6.2 mi SW 10.4 mph - N/A   Mostly Cloudy
5:25 AM 39.2 °F 34.2 °F 37.4 °F 93% 29.47 in 6.2 mi SW 6.9 mph 19.6 mph N/A   Overcast
6:25 AM 39.2 °F 34.2 °F 37.4 °F 93% 29.47 in 6.2 mi WSW 6.9 mph - N/A   Mostly Cloudy
7:00 AM 40 °F - 37 °F 87%  in 17 mi WSW 8.9 mph - -   Mostly Cloudy
7:25 AM 39.2 °F 34.2 °F 37.4 °F 93% 29.47 in 6.2 mi WSW 6.9 mph 18.4 mph N/A   Mostly Cloudy
7:33 AM 39.2 °F 35.0 °F 37.4 °F 93% 29.50 in 6.2 mi WSW 5.8 mph 17.3 mph N/A   Overcast
8:03 AM 39.2 °F 35.9 °F 37.4 °F 93% 29.50 in 6.2 mi SW 4.6 mph - N/A   Mostly Cloudy
8:25 AM 39.2 °F 35.9 °F 37.4 °F 93% 29.50 in 6.2 mi WSW 4.6 mph - N/A   Mostly Cloudy
9:25 AM 39.2 °F 37.0 °F 37.4 °F 93% 29.53 in 6.2 mi Variable 3.5 mph 16.1 mph N/A   Overcast
10:00 AM 40 °F - 37 °F 86% 29.58 in 14 mi 2.2 mph - -   Overcast
10:25 AM 39.2 °F 37.0 °F 37.4 °F 93% 29.53 in 6.2 mi Variable 3.5 mph - N/A   Overcast
10:33 AM 39.2 °F 37.0 °F 37.4 °F 93% 29.53 in 6.2 mi Variable 3.5 mph 15.0 mph N/A   Overcast
11:13 AM 39.2 °F 37.0 °F 37.4 °F 93% 29.56 in 6.2 mi Variable 3.5 mph 15.0 mph N/A   Mostly Cloudy
11:25 AM 39.2 °F - 37.4 °F 93% 29.56 in 6.2 mi Calm Calm - N/A   Mostly Cloudy
12:25 PM 41.0 °F 37.1 °F 37.4 °F 87% 29.56 in 6.2 mi WSW 5.8 mph - N/A   Overcast
12:58 PM 41.0 °F 34.3 °F 35.6 °F 81% 29.56 in 6.2 mi WSW 11.5 mph - N/A   Mostly Cloudy
1:00 PM 41 °F - 36 °F 77% 29.62 in 17 mi WSW 11.2 mph - -   Mostly Cloudy
1:25 PM 41.0 °F 34.7 °F 37.4 °F 87% 29.56 in 6.2 mi WSW 10.4 mph - N/A   Mostly Cloudy
1:33 PM 41.0 °F 36.4 °F 37.4 °F 87% 29.59 in 6.2 mi WSW 6.9 mph - N/A   Mostly Cloudy
2:25 PM 41.0 °F 37.1 °F 37.4 °F 87% 29.59 in 6.2 mi WSW 5.8 mph - N/A   Mostly Cloudy
2:38 PM 41.0 °F 38.0 °F 37.4 °F 87% 29.59 in 6.2 mi West 4.6 mph - N/A Rain Light Rain
3:25 PM 39.2 °F 35.9 °F 37.4 °F 93% 29.59 in 3.1 mi WNW 4.6 mph 16.1 mph N/A Rain Rain
4:00 PM 38 °F - 37 °F 96% 29.67 in 4 mi 4.5 mph - - Rain Rain
4:25 PM 37.4 °F - 37.4 °F 100% 29.62 in 5.0 mi Calm Calm - N/A Rain Rain
5:25 PM 37.4 °F - 37.4 °F 100% 29.65 in 6.2 mi Calm Calm - N/A   Mostly Cloudy
5:33 PM 37.4 °F - 37.4 °F 100% 29.65 in 6.2 mi Calm Calm - N/A   Overcast
6:25 PM 37.4 °F - 37.4 °F 100% 29.68 in 4.3 mi Calm Calm - N/A   Overcast
6:43 PM 37.4 °F - 37.4 °F 100% 29.68 in 5.0 mi Calm Calm - N/A   Mostly Cloudy
7:00 PM 38 °F - 37 °F 96% 29.75 in 5 mi Calm Calm - - Rain Drizzle
7:03 PM 37.4 °F - 37.4 °F 100% 29.68 in 5.6 mi Calm Calm - N/A   Mostly Cloudy
7:25 PM 37.4 °F - 37.4 °F 100% 29.71 in 3.7 mi Calm Calm - N/A   Mostly Cloudy
7:49 PM 37.4 °F 33.8 °F 35.6 °F 93% 29.71 in 3.1 mi NNW 4.6 mph 17.3 mph N/A   Mostly Cloudy
7:59 PM 37.4 °F - 35.6 °F 93% 29.71 in 6.2 mi Calm Calm - N/A   Mostly Cloudy
8:14 PM 37.4 °F - 35.6 °F 93% 29.74 in 5.6 mi Variable 2.3 mph - N/A   Mostly Cloudy
8:25 PM 37.4 °F 33.8 °F 35.6 °F 93% 29.74 in 4.3 mi NNW 4.6 mph - N/A   Mostly Cloudy
8:34 PM 37.4 °F - 35.6 °F 93% 29.74 in 4.3 mi Variable 1.2 mph - N/A   Mostly Cloudy
9:19 PM 37.4 °F - 35.6 °F 93% 29.77 in 4.3 mi Calm Calm - N/A   Mostly Cloudy
9:25 PM 37.4 °F - 35.6 °F 93% 29.77 in 5.0 mi Calm Calm - N/A   Mostly Cloudy
10:00 PM 37 °F - 36 °F 94% 29.85 in 5 mi Calm Calm - -   Clear
10:25 PM 37.4 °F - 35.6 °F 93% 29.80 in 4.3 mi Calm Calm - N/A   Mostly Cloudy
10:49 PM 35.6 °F - 35.6 °F 100% 29.80 in 3.7 mi Calm Calm - N/A   Mostly Cloudy
11:19 PM 35.6 °F - 35.6 °F 100% 29.80 in 3.7 mi Variable 1.2 mph - N/A   Mostly Cloudy
11:25 PM 35.6 °F - 35.6 °F 100% 29.80 in 3.1 mi Variable 1.2 mph - N/A   Mostly Cloudy
11:37 PM 37.4 °F - 35.6 °F 93% 29.80 in 1.8 mi Calm Calm - N/A   Mostly Cloudy
11:44 PM 37.4 °F - 35.6 °F 93% 29.80 in 1.6 mi Calm Calm - N/A   Overcast